Home   Weather   Cayenne   Past weeks
Flag for French Guiana

Past Weather in Cayenne, French Guiana — Yesterday and Last 2 Weeks

Now
75 °F

Passing clouds.


Feels Like: 75 °F
Forecast: 83 / 78 °F
Wind: No wind

Location: Cayenne / Rochambeau

Current Time: Jan 23, 2019 at 1:06:59 am

Latest Report: Jan 23, 2019 at 12:30 am


Visibility: N/A

Pressure: 29.98 "Hg

Humidity: 89%

Dew Point: 72 °F

Location of CayenneLocation

Past Weather in Cayenne — Graph

°F

Cayenne Temperature Yesterday

Maximum temperature yesterday: 84 °F (at 2:30 pm)
Minimum temperature yesterday: 77 °F (at 3:30 am)
Average temperature yesterday: 80 °F

High & Low Weather Summary for the Past Weeks

 TemperatureHumidityPressure
High86 °F (Jan 8, 2:00 pm)100% (Jan 9, 3:00 am)30.01 "Hg (Jan 9, 3:00 am)
Low72 °F (Jan 12, 3:00 am)55% (Jan 13, 1:30 pm)29.83 "Hg (Jan 9, 2:00 pm)
Average79 °F81%29.92 "Hg
* Reported Jan 8 12:00 am — Jan 23 12:00 am, Cayenne. Weather by CustomWeather, © 2019

Note: Actual official high and low records may vary slightly from our data, if they occured in-between our weather recording intervals... More about our weather records

Advertising

Cayenne Weather History for the Previous 24 Hours

Scroll right to see more
 ConditionsComfort  
Time TempWeatherWind HumidityBarometerVisibility
12:00 am
Wed, Jan 23
77 °FPassing clouds.No wind83%29.98 "HgN/A
11:30 pm
Tue, Jan 22
77 °FPassing clouds.3 mph83%29.98 "HgN/A
11:00 pm77 °FPassing clouds.1 mph83%29.98 "HgN/A
10:30 pm77 °FPassing clouds.2 mph83%29.98 "HgN/A
10:00 pm77 °FPassing clouds.3 mph83%30.01 "HgN/A
9:00 pm79 °FPassing clouds.5 mph79%29.98 "HgN/A
8:30 pm79 °FPassing clouds.7 mph79%29.95 "HgN/A
8:00 pm79 °FPassing clouds.7 mph79%29.95 "HgN/A
7:30 pm79 °FPartly cloudy.7 mph79%29.95 "HgN/A
7:00 pm81 °FPassing clouds.8 mph74%29.95 "HgN/A
6:30 pm81 °FMore clouds than sun.10 mph74%29.92 "HgN/A
5:30 pm82 °FMore clouds than sun.10 mph74%29.92 "HgN/A
5:00 pm82 °FPartly sunny.10 mph74%29.89 "HgN/A
4:30 pm82 °FBroken clouds.15 mph74%29.89 "HgN/A
4:00 pm82 °FBroken clouds.17 mph74%29.92 "HgN/A
3:30 pm82 °FBroken clouds.16 mph74%29.92 "HgN/A
3:00 pm84 °FPartly sunny.14 mph70%29.92 "HgN/A
2:30 pm84 °FBroken clouds.17 mph66%29.92 "HgN/A
2:00 pm82 °FPartly sunny.14 mph74%29.95 "HgN/A
1:30 pm82 °FPartly sunny.18 mph74%29.95 "HgN/A
1:00 pm82 °FPartly sunny.16 mph74%29.98 "HgN/A
12:30 pm82 °FBroken clouds.16 mph74%29.98 "HgN/A
12:00 pm81 °FMostly cloudy.13 mph84%29.98 "HgN/A
11:30 am82 °FBroken clouds.14 mph74%30.01 "HgN/A
11:00 am82 °FMore clouds than sun.16 mph74%30.01 "HgN/A
10:30 am82 °FPartly sunny.14 mph74%30.01 "HgN/A
10:00 am82 °FPartly sunny.14 mph74%29.98 "HgN/A
9:30 am81 °FPartly sunny.13 mph79%29.98 "HgN/A
9:00 am81 °FBroken clouds.13 mph79%29.98 "HgN/A
8:30 am81 °FBroken clouds.10 mph79%29.98 "HgN/A
8:00 am79 °FBroken clouds.8 mph84%29.95 "HgN/A
7:30 am79 °FBroken clouds.8 mph84%29.95 "HgN/A
7:00 am79 °FPartly sunny.7 mph84%29.95 "HgN/A
6:30 am79 °FOvercast.8 mph84%29.92 "HgN/A
6:00 am79 °FLight rain. Partly cloudy.7 mph84%29.92 "HgN/A
5:30 am79 °FMostly cloudy.8 mph84%29.92 "HgN/A
4:30 am79 °FPartly cloudy.9 mph84%29.92 "HgN/A
4:00 am79 °FPassing clouds.8 mph84%29.92 "HgN/A
3:30 am77 °FPartly cloudy.9 mph89%29.92 "HgN/A
3:00 am79 °FMostly cloudy.7 mph84%29.92 "HgN/A
2:30 am79 °FPartly cloudy.8 mph84%29.92 "HgN/A
2:00 am79 °FPassing clouds.8 mph84%29.92 "HgN/A
1:30 am79 °FPassing clouds.8 mph84%29.92 "HgN/A
1:00 am79 °FPartly cloudy.8 mph84%29.95 "HgN/A
Weather by CustomWeather, © 2019

See weather overview